Location: 3 Angels Observatory
(30.5437°N, 88.5068°W)
Time: 10:25:50
(UTC-06:00)

Amateur Radio Satellites - All Passes

Search period start: 22 November 2014 09:55
Search period end: 23 November 2014 09:55
Location: 3 Angels Observatory, 30.5437°N, 88.5068°W

Satellite Date Start Highest point End Downlink Frequencies (MHz)
Time Altitude Azimuth
DELFI C3 22 Nov 09:57:07 10:01:10 55° 284° (WNW) 10:05:12 145.870
SHINDAISAT 22 Nov 10:01:54 10:03:31 25° 114° (ESE) 10:05:09 437.305
50 SAT 22 Nov 10:02:31 10:06:10 32° 98° (E) 10:09:49 437.505
POPSAT HIP 1 22 Nov 10:03:52 10:08:08 73° 77° (ENE) 10:12:23 437.405
CUTE 1.7 & AOD 2 22 Nov 10:04:32 10:06:20 12° 291° (WNW) 10:08:07 437.475
FUNcube-1 22 Nov 10:06:27 10:10:41 83° 102° (ESE) 10:14:59 145.935
CUBEBUG 1 22 Nov 10:10:27 10:13:10 16° 95° (E) 10:15:52 437.445
UKube-1 22 Nov 10:10:43 10:14:44 38° 287° (WNW) 10:18:45 .
CINEMA 3 22 Nov 10:11:03 10:14:53 35° 286° (WNW) 10:18:48 145.822/145.860
BUGSAT 1 22 Nov 10:12:22 10:16:38 77° 77° (ENE) 10:20:54 437.445
CUBEBUG 2 22 Nov 10:12:58 10:17:06 56° 284° (WNW) 10:21:20 437.445
UWE-3 22 Nov 10:22:04 10:26:09 50° 284° (WNW) 10:30:20 435.000/436.395/437.385
Oscar 11 22 Nov 10:25:49 10:29:12 23° 289° (WNW) 10:32:34 145.826/435.025
TIGRISAT 22 Nov 10:27:18 10:31:17 37° 261° (W) 10:35:15 435.000
HO-68 22 Nov 10:27:34 10:32:27 20° 297° (WNW) 10:37:20 435.675
POLYITAN 1 22 Nov 10:35:03 10:39:07 43° 260° (W) 10:43:11 437.675
ESTCUBE 1 22 Nov 10:36:59 10:41:12 37° 99° (E) 10:45:22 437.505/2401.250
QB50P2 22 Nov 10:38:53 10:42:53 38° 261° (W) 10:46:52 145.880/145.840
UNISAT 6 22 Nov 10:38:58 10:42:37 27° 262° (W) 10:46:15 437.425
DX 1 22 Nov 10:43:11 10:45:54 16° 291° (WNW) 10:48:36 434.975-435.025
DUCHIFAT 1 22 Nov 10:47:57 10:51:43 30° 262° (W) 10:55:30 145.980
VELOX 1 22 Nov 10:53:20 10:57:32 44° 286° (WNW) 11:01:42 145.980
NANOSAT C BR1 22 Nov 11:07:37 11:10:32 18° 264° (W) 11:13:28 145.865
ZACube-1 22 Nov 11:07:42 11:10:29 17° 289° (WNW) 11:13:19 437.345
ANTELSAT 22 Nov 11:09:24 11:11:03 12° 266° (W) 11:12:41 437.575/2403.000
AISAT 22 Nov 11:17:36 11:21:03 23° 289° (WNW) 11:24:29 437.250
QB50P1 22 Nov 11:17:44 11:19:55 14° 265° (W) 11:22:06 145.935-145.965
HUMSAT D 22 Nov 11:21:57 11:24:54 19° 289° (WNW) 11:27:53 437.325/437.525
50 SAT 22 Nov 11:39:02 11:41:11 14° 290° (WNW) 11:43:19 437.505
CUBEBUG 1 22 Nov 11:45:42 11:49:33 31° 287° (WNW) 11:53:23 437.445
SPROUT 22 Nov 11:49:59 11:54:10 52° 100° (E) 11:58:19 437.525
TISAT 1 22 Nov 11:53:03 11:57:15 68° 101° (ESE) 12:01:24 437.305
ESTCUBE 1 22 Nov 12:15:04 12:17:43 16° 292° (WNW) 12:20:22 437.505/2401.250
AUBIESAT-1 22 Nov 12:16:48 12:20:39 23° 100° (E) 12:24:24 437.475
M-CUBED/EXP-1 PRIME 22 Nov 12:18:51 12:22:59 27° 101° (E) 12:27:02 437.505
Oscar 19 22 Nov 12:19:18 12:24:07 44° 73° (ENE) 12:28:58 437.125/150
ITUPSAT 1 22 Nov 12:23:38 12:26:49 18° 95° (E) 12:29:59 437.325
SWISSCUBE 22 Nov 12:35:29 12:39:32 27° 97° (E) 12:43:33 437.505
ITAMSAT 1 22 Nov 13:03:08 13:08:06 46° 73° (ENE) 13:13:04 435.822/435.867
BEESAT 22 Nov 13:06:55 13:11:39 58° 101° (E) 13:16:20 436.000
Gurwin Techsat 1B 22 Nov 13:12:10 13:16:44 30° 71° (ENE) 13:21:18 435.225
CUSAT 1 22 Nov 13:13:47 13:17:01 61° 278° (W) 13:19:44 437.405
DANDE 22 Nov 13:21:42 13:25:08 61° 277° (W) 13:27:56 436.750
SO-50 22 Nov 13:25:36 13:30:20 48° 60° (ENE) 13:35:03 436.795
YUBILEINY 22 Nov 13:35:28 13:43:56 54° 81° (E) 13:52:19 435.215
AUBIESAT-1 22 Nov 13:51:13 13:55:33 32° 293° (WNW) 13:59:47 437.475
M-CUBED/EXP-1 PRIME 22 Nov 13:53:43 13:57:52 28° 293° (WNW) 14:01:57 437.505
ITUPSAT 1 22 Nov 14:00:23 14:04:45 36° 288° (WNW) 14:09:05 437.325
Oscar 19 22 Nov 14:00:35 14:03:35 16° 266° (W) 14:06:37 437.125/150
VERMONT LUNAR 22 Nov 14:00:37 14:03:27 22° 142° (SE) 14:06:18 437.305
STARS 22 Nov 14:06:36 14:10:30 31° 98° (E) 14:14:24 437.465
SWISSCUBE 22 Nov 14:13:27 14:17:13 24° 290° (WNW) 14:20:58 437.505
AO-7 22 Nov 14:31:33 14:39:03 40° 66° (ENE) 14:46:34 29.400- 29.500
KKS-1 22 Nov 14:38:26 14:42:49 65° 284° (WNW) 14:47:12 437.445
ITAMSAT 1 22 Nov 14:44:36 14:47:43 16° 265° (W) 14:50:51 435.822/435.867
HORYU 2 22 Nov 14:46:04 14:50:24 58° 259° (W) 14:54:47 437.375
BEESAT 22 Nov 14:47:24 14:48:56 11° 294° (WNW) 14:50:27 436.000
Gurwin Techsat 1B 22 Nov 14:52:17 14:56:36 25° 263° (W) 15:00:56 435.225
SO-50 22 Nov 15:07:45 15:10:27 15° 252° (WSW) 15:13:09 436.795
PHONESAT 2.4 22 Nov 15:10:54 15:14:33 62° 147° (SSE) 15:18:14 2401.200-2431.200
RS-15 22 Nov 15:22:31 15:32:50 47° 109° (ESE) 15:42:59 29.354- 29.394
MaSat-1 22 Nov 15:22:36 15:25:54 89° 291° (WNW) 15:28:53 437.345
YUBILEINY 22 Nov 15:33:25 15:40:05 26° 276° (W) 15:46:45 435.215
VERMONT LUNAR 22 Nov 15:38:13 15:41:46 54° 334° (NNW) 15:45:20 437.305
JAS-2 22 Nov 15:41:14 15:47:49 37° 68° (ENE) 15:54:47 435.910
STARS 22 Nov 15:43:52 15:46:43 17° 291° (WNW) 15:49:33 437.465
AO-7 22 Nov 16:24:15 16:31:41 37° 260° (W) 16:39:13 29.400- 29.500
O/OREOS (USA 219) 22 Nov 16:32:32 16:36:59 67° 71° (ENE) 16:41:25 437.305
PHONESAT 2.4 22 Nov 16:50:16 16:53:32 28° 342° (NNW) 16:56:48 2401.200-2431.200
MOZHAYETS 4 22 Nov 16:51:28 16:56:09 85° 102° (ESE) 17:00:47
Cubesat XI-IV 22 Nov 16:51:32 16:56:17 33° 71° (ENE) 17:01:04 437.490
VERMONT LUNAR 22 Nov 17:18:05 17:20:45 19° 350° (N) 17:23:26 437.305
JAS-2 22 Nov 17:25:57 17:32:36 38° 264° (W) 17:39:44 435.910
CUTE-I 22 Nov 17:33:20 17:38:42 88° 76° (ENE) 17:44:05 437.470
RS-15 22 Nov 17:34:58 17:45:06 42° 307° (NW) 17:55:15 29.354- 29.394
PRISM 22 Nov 17:51:04 17:55:18 69° 102° (ESE) 17:59:28 437.425
CUBESAT XI-V 22 Nov 18:22:03 18:26:35 51° 100° (E) 18:31:05 437.345
PHONESAT 2.4 22 Nov 18:30:34 18:33:06 17° 359° (N) 18:35:37 2401.200-2431.200
Cubesat XI-IV 22 Nov 18:32:07 18:36:20 23° 264° (W) 18:40:34 437.490
VERMONT LUNAR 22 Nov 18:57:31 19:00:06 18° 8° (N) 19:02:41 437.305
STRAND 1 22 Nov 18:59:16 19:04:20 68° 285° (WNW) 19:09:22 437.568
HO-68 22 Nov 19:01:44 19:07:29 27° 65° (ENE) 19:13:15 435.675
BRITE-PL 22 Nov 19:02:36 19:05:04 14° 69° (ENE) 19:07:27 437.365/2234.400
CUTE 1.7 & AOD 2 22 Nov 19:16:02 19:18:28 15° 70° (ENE) 19:20:55 437.475
GONETS M04 22 Nov 19:24:53 19:33:36 60° 81° (E) 19:42:12
BEESAT 3 22 Nov 19:48:27 19:52:00 30° 111° (ESE) 19:55:37 437.485
PCSat 22 Nov 19:50:24 19:55:48 85° 113° (ESE) 20:01:14 145.827
SEEDS 22 Nov 19:52:18 19:56:08 36° 74° (ENE) 19:59:59 437.485
DX 1 22 Nov 19:57:50 20:00:18 15° 68° (ENE) 20:02:45 434.975-435.025
BEESAT 2 22 Nov 20:00:33 20:04:19 38° 113° (ESE) 20:08:10 435.950
CUBESAT XI-V 22 Nov 20:01:44 20:03:31 12° 293° (WNW) 20:05:18 437.345
DOVE 4 22 Nov 20:04:10 20:08:25 32° 74° (ENE) 20:12:27 437.250
PHONESAT 2.4 22 Nov 20:09:30 20:12:41 26° 17° (NNE) 20:15:51 2401.200-2431.200
AIST 1 22 Nov 20:09:56 20:14:09 48° 278° (W) 20:18:25
CANX-2 22 Nov 20:14:39 20:18:51 85° 258° (WSW) 20:23:05 2200.000
AAUSAT CUBESAT 2 22 Nov 20:16:28 20:20:30 54° 76° (ENE) 20:24:34 437.432
AIST 2 22 Nov 20:18:43 20:22:18 28° 111° (ESE) 20:25:56 435.215
ZACube-1 22 Nov 20:23:54 20:25:29 12° 69° (ENE) 20:27:03 437.345
GOMX 1 22 Nov 20:28:16 20:33:20 85° 78° (ENE) 20:38:04 467.674
COMPASS 1 22 Nov 20:29:02 20:33:11 87° 258° (WSW) 20:37:22 437.405
VERMONT LUNAR 22 Nov 20:35:40 20:39:10 45° 24° (NNE) 20:42:39 437.305
AISAT 22 Nov 20:36:04 20:37:39 12° 67° (ENE) 20:39:15 437.250
BRITE-PL 22 Nov 20:37:58 20:43:11 54° 260° (W) 20:48:01 437.365/2234.400
DELFI C3 22 Nov 20:40:33 20:44:22 41° 75° (ENE) 20:48:12 145.870
HO-68 22 Nov 20:47:56 20:54:47 47° 259° (W) 21:01:40 435.675
50 SAT 22 Nov 20:49:12 20:49:58 10° 68° (ENE) 20:50:43 437.505
CUTE 1.7 & AOD 2 22 Nov 20:50:20 20:54:06 32° 262° (W) 20:57:53 437.475
FUNcube-1 22 Nov 20:57:35 21:01:22 31° 73° (ENE) 21:05:05 145.935
UKube-1 22 Nov 20:59:55 21:04:16 85° 77° (ENE) 21:08:38 .
CUBEBUG 2 22 Nov 21:05:55 21:10:13 59° 76° (ENE) 21:14:24 437.445
CINEMA 3 22 Nov 21:07:00 21:11:35 79° 258° (WSW) 21:15:57 145.822/145.860
UWE-3 22 Nov 21:13:52 21:18:09 63° 76° (ENE) 21:22:20 435.000/436.395/437.385
Oscar 11 22 Nov 21:14:14 21:18:27 57° 260° (W) 21:22:42 145.826/435.025
GONETS M04 22 Nov 21:23:16 21:29:38 23° 277° (W) 21:35:59
BEESAT 3 22 Nov 21:27:24 21:30:14 18° 306° (NW) 21:33:06 437.485
ANTELSAT 22 Nov 21:29:15 21:31:34 14° 95° (E) 21:33:55 437.575/2403.000
SEEDS 22 Nov 21:30:15 21:32:03 13° 266° (W) 21:33:52 437.485
DX 1 22 Nov 21:32:08 21:36:11 36° 261° (W) 21:40:15 434.975-435.025
ESTCUBE 1 22 Nov 21:32:23 21:35:31 19° 69° (ENE) 21:38:39 437.505/2401.250
PCSat 22 Nov 21:38:22 21:39:51 11° 309° (NW) 21:41:20 145.827
BEESAT 2 22 Nov 21:40:21 21:42:44 15° 307° (NW) 21:45:09 435.950
DOVE 4 22 Nov 21:42:46 21:46:08 19° 264° (W) 21:49:23 437.250
VELOX 1 22 Nov 21:45:20 21:49:49 81° 76° (ENE) 21:54:18 145.980
PHONESAT 2.4 22 Nov 21:48:01 21:51:43 72° 211° (SSW) 21:55:23 2401.200-2431.200
POPSAT HIP 1 22 Nov 21:56:16 21:59:12 18° 96° (E) 22:02:08 437.405
ZACube-1 22 Nov 21:57:24 22:01:28 42° 261° (W) 22:05:28 437.345
AIST 2 22 Nov 21:57:46 22:00:53 20° 305° (NW) 22:04:04 435.215
BUGSAT 1 22 Nov 22:02:07 22:04:46 17° 95° (E) 22:07:23 437.445
HUMSAT D 22 Nov 22:07:49 22:11:53 54° 260° (W) 22:15:57 437.325/437.525
AISAT 22 Nov 22:09:28 22:13:49 49° 260° (W) 22:18:11 437.250
VERMONT LUNAR 22 Nov 22:14:26 22:17:33 27° 217° (SW) 22:20:38 437.305
DELFI C3 22 Nov 22:19:07 22:19:48 10° 267° (W) 22:20:30 145.870
50 SAT 22 Nov 22:21:00 22:24:52 43° 261° (W) 22:28:43 437.505
TIGRISAT 22 Nov 22:24:09 22:28:33 66° 101° (ESE) 22:33:02 435.000
POLYITAN 1 22 Nov 22:26:35 22:30:39 46° 100° (E) 22:34:42 437.675
QB50P2 22 Nov 22:30:04 22:34:11 51° 100° (E) 22:38:18 145.880/145.840
FUNcube-1 22 Nov 22:35:14 22:37:43 15° 265° (W) 22:40:12 145.935
UNISAT 6 22 Nov 22:35:43 22:40:10 87° 283° (WNW) 22:44:43 437.425
CUBEBUG 1 22 Nov 22:35:48 22:40:15 79° 258° (WSW) 22:44:43 437.445
DUCHIFAT 1 22 Nov 22:38:28 22:42:39 65° 101° (E) 22:46:49 145.980
SPROUT 22 Nov 22:39:45 22:42:57 21° 71° (ENE) 22:46:09 437.525
TISAT 1 22 Nov 22:40:54 22:44:23 25° 72° (ENE) 22:47:53 437.305
JUGNU 22 Nov 22:53:13 22:55:56 13° 162° (SSE) 22:58:40 437.505
NANOSAT C BR1 22 Nov 22:57:16 23:01:27 70° 284° (WNW) 23:05:38 145.865
AUBIESAT-1 22 Nov 23:04:06 23:04:43 10° 61° (ENE) 23:05:20 437.475
ANTELSAT 22 Nov 23:04:18 23:08:26 39° 286° (WNW) 23:12:39 437.575/2403.000
M-CUBED/EXP-1 PRIME 22 Nov 23:05:41 23:07:19 12° 62° (ENE) 23:09:00 437.505
QB50P1 22 Nov 23:06:44 23:10:50 52° 285° (WNW) 23:14:55 145.935-145.965
ESTCUBE 1 22 Nov 23:08:07 23:12:07 31° 262° (W) 23:16:09 437.505/2401.250
ISS 22 Nov 23:21:11 23:24:23 54° 132° (SE) 23:27:36 145.825
ITUPSAT 1 22 Nov 23:27:10 23:28:41 11° 66° (ENE) 23:30:12 437.325
POPSAT HIP 1 22 Nov 23:31:33 23:35:03 26° 288° (WNW) 23:38:32 437.405
BUGSAT 1 22 Nov 23:36:49 23:40:13 26° 288° (WNW) 23:43:36 437.445
SWISSCUBE 22 Nov 23:37:48 23:40:55 18° 68° (ENE) 23:44:02 437.505
CUSAT 1 22 Nov 23:55:32 00:00:10 54° 83° (E) 00:06:23 437.405
POLYITAN 1 23 Nov 00:05:03 00:06:09 11° 292° (WNW) 00:07:14 437.675
DANDE 23 Nov 00:05:46 00:10:15 56° 83° (E) 00:16:20 436.750
BEESAT 23 Nov 00:08:17 00:12:36 35° 72° (ENE) 00:16:56 436.000
SPROUT 23 Nov 00:15:17 00:18:51 25° 263° (W) 00:22:25 437.525
TISAT 1 23 Nov 00:16:58 00:20:07 20° 264° (W) 00:23:17 437.305
RS-15 23 Nov 00:30:14 00:40:07 34° 50° (NE) 00:50:17 29.354- 29.394
AUBIESAT-1 23 Nov 00:35:30 00:39:08 47° 257° (WSW) 00:43:08 437.475
Oscar 19 23 Nov 00:36:59 00:41:13 25° 97° (E) 00:45:26 437.125/150
M-CUBED/EXP-1 PRIME 23 Nov 00:38:24 00:41:54 38° 258° (WSW) 00:45:45 437.505
JUGNU 23 Nov 00:39:41 00:44:23 24° 170° (S) 00:49:07 437.505
SRMSAT 23 Nov 00:44:41 00:48:14 16° 164° (SSE) 00:51:47 437.500
ISS 23 Nov 00:59:45 01:01:15 13° 326° (NW) 01:02:46 145.825
STARS 23 Nov 00:59:59 01:02:26 15° 68° (ENE) 01:04:53 437.465
ITUPSAT 1 23 Nov 01:01:18 01:06:01 59° 259° (W) 01:10:46 437.325
MaSat-1 23 Nov 01:07:32 01:09:27 21° 66° (ENE) 01:11:25 437.345
SWISSCUBE 23 Nov 01:14:00 01:18:26 37° 261° (W) 01:22:53 437.505
ITAMSAT 1 23 Nov 01:22:15 01:26:32 26° 97° (E) 01:30:47 435.822/435.867
KKS-1 23 Nov 01:31:07 01:35:28 55° 75° (ENE) 01:39:50 437.445
Gurwin Techsat 1B 23 Nov 01:34:38 01:38:20 19° 95° (E) 01:42:02 435.225
CUSAT 1 23 Nov 01:40:50 01:43:18 13° 266° (W) 01:46:04 437.405
BEESAT 23 Nov 01:47:15 01:50:28 18° 265° (W) 01:53:42 436.000
DANDE 23 Nov 01:51:59 01:53:46 12° 266° (W) 01:55:42 436.750
Oscar 19 23 Nov 02:16:04 02:20:26 29° 289° (WNW) 02:24:50 437.125/150
JUGNU 23 Nov 02:27:51 02:32:56 29° 181° (S) 02:38:03 437.505
YUBILEINY 23 Nov 02:28:37 02:37:23 74° 93° (E) 02:46:08 435.215
SRMSAT 23 Nov 02:31:58 02:36:53 27° 173° (S) 02:41:48 437.500
STARS 23 Nov 02:34:29 02:38:34 37° 261° (W) 02:42:39 437.465
AO-7 23 Nov 02:41:10 02:46:09 17° 95° (E) 02:51:07 29.400- 29.500
RS-15 23 Nov 02:41:53 02:53:01 64° 249° (WSW) 03:04:41 29.354- 29.394
HORYU 2 23 Nov 02:43:22 02:47:38 41° 100° (E) 02:51:52 437.375
ITAMSAT 1 23 Nov 03:01:33 03:05:54 28° 290° (WNW) 03:10:14 435.822/435.867
Gurwin Techsat 1B 23 Nov 03:13:27 03:18:22 39° 288° (WNW) 03:23:15 435.225
SO-50 23 Nov 03:35:02 03:39:23 56° 114° (ESE) 03:43:51 436.795
MOZHAYETS 4 23 Nov 03:48:08 03:52:23 40° 74° (ENE) 03:56:41
JUGNU 23 Nov 04:16:51 04:21:29 23° 191° (S) 04:26:07 437.505
SRMSAT 23 Nov 04:20:31 04:25:36 29° 183° (S) 04:30:40 437.500
HORYU 2 23 Nov 04:21:38 04:23:54 14° 292° (WNW) 04:26:10 437.375
YUBILEINY 23 Nov 04:29:14 04:34:52 18° 289° (WNW) 04:40:31 435.215
AO-7 23 Nov 04:31:07 04:39:28 78° 289° (WNW) 04:47:49 29.400- 29.500
PRISM 23 Nov 04:37:12 04:40:34 24° 71° (ENE) 04:43:57 437.425
JAS-2 23 Nov 04:42:33 04:49:17 48° 98° (E) 04:55:12 435.910
PCSat 23 Nov 04:44:56 04:49:02 22° 56° (ENE) 04:53:08 145.827
O/OREOS (USA 219) 23 Nov 05:01:54 05:04:30 15° 100° (E) 05:07:06 437.305
Cubesat XI-IV 23 Nov 05:15:07 05:19:05 21° 96° (E) 05:23:01 437.490
SO-50 23 Nov 05:18:11 05:20:16 13° 310° (NW) 05:22:23 436.795
CUBESAT XI-V 23 Nov 05:20:27 05:24:23 27° 72° (ENE) 05:28:20 437.345
MOZHAYETS 4 23 Nov 05:27:21 05:29:43 14° 266° (W) 05:32:07
BEESAT 3 23 Nov 05:51:11 05:55:16 51° 61° (ENE) 05:59:17 437.485
CUTE-I 23 Nov 05:56:26 06:01:40 57° 101° (E) 06:06:51 437.470
BEESAT 2 23 Nov 06:03:52 06:08:02 66° 62° (ENE) 06:12:09 435.950
JUGNU 23 Nov 06:07:43 06:09:57 12° 199° (SSW) 06:12:10 437.505
STRAND 1 23 Nov 06:09:20 06:14:29 85° 257° (WSW) 06:19:40 437.568
SRMSAT 23 Nov 06:09:56 06:14:17 21° 193° (SSW) 06:18:37 437.500
PRISM 23 Nov 06:12:56 06:16:01 20° 264° (W) 06:19:07 437.425
AIST 1 23 Nov 06:23:43 06:27:14 23° 78° (ENE) 06:30:42
AIST 2 23 Nov 06:23:52 06:28:03 51° 61° (ENE) 06:32:09 435.215
AO-7 23 Nov 06:27:26 06:30:54 13° 305° (NW) 06:34:23 29.400- 29.500
PCSat 23 Nov 06:27:30 06:32:33 41° 251° (WSW) 06:37:33 145.827
JAS-2 23 Nov 06:28:26 06:33:45 24° 296° (WNW) 06:38:39 435.910
GONETS M04 23 Nov 06:29:43 06:31:36 11° 78° (ENE) 06:33:30
O/OREOS (USA 219) 23 Nov 06:39:26 06:43:32 34° 293° (WNW) 06:47:39 437.305
Cubesat XI-IV 23 Nov 06:54:22 06:59:11 36° 289° (WNW) 07:03:59 437.490
CUBESAT XI-V 23 Nov 06:58:02 07:01:43 23° 264° (W) 07:05:26 437.345
ISS 23 Nov 07:30:27 07:33:42 53° 44° (NE) 07:36:56 145.825
CUTE-I 23 Nov 07:38:32 07:41:10 14° 295° (WNW) 07:43:49 437.470
AIST 1 23 Nov 08:01:30 08:04:41 20° 271° (W) 08:07:51
AIST 2 23 Nov 08:05:54 08:06:09 10° 253° (WSW) 08:06:25 435.215
CANX-2 23 Nov 08:06:26 08:10:01 25° 97° (E) 08:13:35 2200.000
AAUSAT CUBESAT 2 23 Nov 08:07:22 08:09:37 14° 94° (E) 08:11:52 437.432
DOVE 4 23 Nov 08:11:06 08:12:21 11° 94° (E) 08:13:36 437.250
GONETS M04 23 Nov 08:18:11 08:26:56 82° 94° (E) 08:35:48
COMPASS 1 23 Nov 08:19:24 08:22:49 23° 97° (E) 08:26:13 437.405
HO-68 23 Nov 08:21:38 08:28:29 47° 101° (E) 08:35:16 435.675
GOMX 1 23 Nov 08:36:19 08:40:06 34° 99° (E) 08:43:59 467.674
CUTE 1.7 & AOD 2 23 Nov 08:40:57 08:45:13 65° 101° (E) 08:49:28 437.475
BRITE-PL 23 Nov 08:48:46 08:52:54 75° 101° (ESE) 08:57:06 437.365/2234.400
UKube-1 23 Nov 08:54:20 08:57:43 22° 97° (E) 09:01:04 .
CUBEBUG 2 23 Nov 09:03:42 09:06:41 19° 96° (E) 09:09:43 437.445
Oscar 11 23 Nov 09:07:26 09:11:30 38° 99° (E) 09:15:32 145.826/435.025
CINEMA 3 23 Nov 09:07:51 09:11:44 35° 99° (E) 09:15:43 145.822/145.860
UWE-3 23 Nov 09:10:27 09:13:30 19° 96° (E) 09:16:35 435.000/436.395/437.385
POLYITAN 1 23 Nov 09:15:46 09:18:40 18° 70° (ENE) 09:21:35 437.675
SEEDS 23 Nov 09:18:08 09:22:14 48° 285° (WNW) 09:26:21 437.485
TIGRISAT 23 Nov 09:18:25 09:22:04 28° 72° (ENE) 09:25:42 435.000
QB50P2 23 Nov 09:18:52 09:21:57 20° 71° (ENE) 09:25:02 145.880/145.840
DX 1 23 Nov 09:25:59 09:30:16 58° 101° (E) 09:34:31 434.975-435.025
DUCHIFAT 1 23 Nov 09:26:36 09:30:01 24° 72° (ENE) 09:33:26 145.980
UNISAT 6 23 Nov 09:29:54 09:33:55 40° 74° (ENE) 09:37:54 437.425
AAUSAT CUBESAT 2 23 Nov 09:41:31 09:45:21 34° 286° (WNW) 09:49:10 437.432
CANX-2 23 Nov 09:42:39 09:45:45 20° 289° (WNW) 09:48:52 2200.000
VELOX 1 23 Nov 09:42:44 09:46:18 24° 97° (E) 09:49:51 145.980
NANOSAT C BR1 23 Nov 09:44:49 09:48:49 40° 74° (ENE) 09:52:49 145.865
DOVE 4 23 Nov 09:46:20 09:50:14 40° 285° (WNW) 09:54:15 437.250
